Вернуться в каталог

EUTE W2

АктивенСвязьGEO
NORAD 25491·PAYLOAD·🇪🇺 EU

Запущен Oct 5, 1998 с Guiana Space Centre

Loading…

TLE

СвежийSource: Space-Track

Эпоха: Sep 14, 2026, 12:17 UTC

1 25491U 98056A   26257.51230198  .00000059  00000-0  00000-0 0  9994
2 25491  11.8189  37.5000 0004082 194.5530 348.5827  0.99260623101744

Отслеживайте EUTE W2 в реальном времени с AllMySat

Download on the App Store